COSMOS 1275 DEB, 39965

Orbit data source: Space-Track

COSMOS 1275 DEB, 39965 is space debris in LEO originally from a launch on Thu, 04 Jun 1981 UTC launched from the Plesetsk Missile And Space Complex (PKMTR). Debris objects in space refer to the collection of defunct objects orbiting the Earth. Examples of debris include non-operational satellites, rocket bodies, and fragments generated from explosions, collisions, or faulty payload assembly.

Loading next visibility...
Identifier
39965, 1981-053PB
Orbit
LEO
Country
Flag of CISCIS
Related business
Manufacturer
Unknown
Mission
Spacecraft
Bus & Motor
Unknown
Mass
Unknown
Launch date (UTC)
1981-06-04 (45 years ago)
Launch vehicle
Unknown
Launch site
Plesetsk Missile And Space Complex (PKMTR)
Object type
Payload
Rocket body
Debris
Shape & HBR
Unknown shape, 0.1 m
Radar Cross Section
Small (<0.1 m²)

Expand to show TLE details & history
Last TLE update: 2 days ago

TLE from 2 days ago
0 COSMOS 1275 DEB
1 39965U 81053PB  26035.34122779  .00000918  00000-0  80265-3 0  9992
2 39965  82.9691 352.3611 0044633   1.7399 150.6524 13.84277806588234
Epoch: 2026-02-04T08:11Z
TLE epoch observation values (Epoch: 2026-02-04T08:11:22.081Z)
Latitude
27.17313°
Longitude
-88.60112°
Altitude
980.625 km
Speed
7.349 km/s
True Right ascension
11h 15m 00s
True Declination
27° 02' 16"
Sunlit
Object was in full shadow at epoch
Visualization orbit readout
Latitude
Unknown
Longitude
Unknown
Altitude
Unknown
Speed
Unknown
Apparent Right ascension
Unknown
Apparent Declination
Unknown
Sunlit
N/A
Visualization observer readout
Local Sidereal Time
17:22:22
Azimuth
Unknown
Elevation
Unknown
Doppler factor
Unknown
Orbital elements
Apogee altitude
978.577 km
Perigee altitude
913.199 km
Semi-major axis
7,324.025 km
Eccentricity
0.00446
Inclination
82.9691°
RAAN
352.3611°
Arg. of periapsis
1.7399°
True anomaly
150.90185°
Mean anomaly
150.6524°
Eccentric anomaly
150.77725°
Mean motion
3.46273 °/min
Orbital period
103.96 mins
BSTAR
0.00080265
Loading maneuver chart data...
Computing Atmospheric mass density...
Loading historical data...
Loading historical data...
Loading historical data...
Loading historical data...
Loading historical data...
Loading historical data...
Loading historical data...

Documentation

Showing up to 5 results
|